Adrian, MI

10:27 PM EST on January 16, 2018 (GMT -0500)
Lenawee County

Weather History for KADG - April, 2014

Change the Weather History Date:

Wednesday, April 9, 2014

  Actual Average Record
Temperature  
Mean Temperature 46 °F -  
Max Temperature 57 °F 52 °F 75 °F (1967)
Min Temperature 36 °F 32 °F 16 °F (1957)
Degree Days  
Heating Degree Days 18    
Moisture  
Dew Point 29 °F    
Average Humidity 52    
Maximum Humidity 73    
Minimum Humidity 32    
Precipitation  
Precipitation 0.00 in - - ()
Sea Level Pressure  
Sea Level Pressure 29.97 in    
Wind  
Wind Speed 9 mph (NW)    
Max Wind Speed 17 mph    
Max Gust Speed 22 mph    
Visibility 10 miles    
Events      
Averages and records for this station are not official NWS values.
T = Trace of Precipitation, MM = Missing Value Source: NWS Daily Summary

Daily Weather History Graph

Daily Weather History Graph

Search for Another Location

Airport or City:

Trip Planner

Search our weather history database for the weather conditions in past years. The results will help you decide how hot, cold, wet, or windy it might be!

Date:

Astronomy

Apr. 09, 2014 Rise Set
Actual Time 7:05 AM EDT 8:10 PM EDT
Civil Twilight 6:37 AM EDT 8:39 PM EDT
Nautical Twilight 6:03 AM EDT 9:13 PM EDT
Astronomical Twilight 5:27 AM EDT 9:49 PM EDT
Moon 2:53 PM EDT (4/9) 3:59 AM EDT (4/9)
Length of Visible Light 14h 02m
Length of Day
13h 04m
Waxing Gibbous, 71% of the Moon is Illuminated
Apr 9
Waxing Gibbous
Apr 15
Full
Apr 22
Last Quarter
Apr 29
New
May 6
First Quarter

Hourly Weather History & Observations

Time (EDT) Temp. Windchill Dew Point Humidity Pressure Visibility Wind Dir Wind Speed Gust Speed Precip Events Conditions
12:53 AM 45.0 °F 40.6 °F 35.1 °F 68% 29.85 in 10.0 mi NNW 8.1 mph - N/A   Unknown
1:53 AM 43.0 °F 37.7 °F 32.0 °F 65% 29.86 in 10.0 mi North 9.2 mph - N/A   Clear
2:53 AM 42.1 °F 36.6 °F 32.0 °F 67% 29.88 in 10.0 mi North 9.2 mph - N/A   Clear
3:53 AM 39.9 °F 33.4 °F 32.0 °F 73% 29.89 in 10.0 mi North 10.4 mph - N/A   Clear
4:53 AM 39.0 °F 31.8 °F 30.0 °F 70% 29.91 in 10.0 mi North 11.5 mph - N/A   Clear
5:53 AM 37.0 °F 29.8 °F 28.0 °F 70% 29.93 in - North 10.4 mph - N/A   Clear
6:53 AM 36.0 °F 29.6 °F 27.0 °F 70% 29.96 in - North 8.1 mph - N/A   Partly Cloudy
7:53 AM 36.0 °F 29.6 °F 27.0 °F 70% 29.98 in - NNW 8.1 mph - N/A   Clear
8:53 AM 41.0 °F 35.2 °F 26.1 °F 55% 30.01 in - North 9.2 mph - N/A   Clear
9:53 AM 44.1 °F 39.0 °F 23.0 °F 43% 30.02 in - North 9.2 mph - N/A   Clear
10:53 AM 46.9 °F - 23.0 °F 39% 30.03 in - NW 5.8 mph - N/A   Clear
11:53 AM 51.1 °F - 24.1 °F 35% 30.03 in - NNW 10.4 mph - N/A   Clear
12:53 PM 53.1 °F - 25.0 °F 34% 30.03 in - NW 10.4 mph - N/A   Clear
1:53 PM 55.0 °F - 26.1 °F 33% 30.02 in - North 12.7 mph - N/A   Clear
2:53 PM 55.0 °F - 26.1 °F 33% 30.01 in - NW 12.7 mph - N/A   Partly Cloudy
3:53 PM 54.0 °F - 27.0 °F 35% 30.00 in 10.0 mi NW 11.5 mph - N/A   Partly Cloudy
4:53 PM 55.9 °F - 28.0 °F 34% 29.99 in 10.0 mi WNW 10.4 mph 18.4 mph N/A   Scattered Clouds
5:53 PM 57.0 °F - 27.0 °F 32% 29.98 in 10.0 mi West 17.3 mph 21.9 mph N/A   Mostly Cloudy
6:53 PM 55.9 °F - 28.0 °F 34% 29.98 in 10.0 mi West 11.5 mph 17.3 mph N/A   Clear
7:53 PM 53.1 °F - 30.9 °F 43% 29.98 in 10.0 mi West 4.6 mph - N/A   Clear
8:53 PM 46.9 °F - 32.0 °F 56% 29.97 in 10.0 mi SW 6.9 mph - N/A   Clear
9:53 PM 46.9 °F - 34.0 °F 61% 29.96 in 10.0 mi SSW 8.1 mph - N/A   Clear
10:53 PM 44.1 °F 39.5 °F 34.0 °F 68% 29.96 in 10.0 mi SSW 8.1 mph - N/A   Clear
11:53 PM 46.9 °F - 36.0 °F 66% 29.96 in 10.0 mi WSW 8.1 mph - N/A   Clear